Temp
-10 -10 -9 -9 -9 -9 -9 -8 -8 -8 -8 -8 -8 -8 -8 -8 -8 -8 -8 -8 -8 -8 -8 -8 -8 -8 -8 -8 -8 -8 -8 -9 -8 -9 -9 -9 -9 -10 -10 -10 -9 -10 -10 -10 -10
-11 -11 -10 -10 -10 -9 -9 -9 -9 -9 -8 -8 -8 -8 -8 -8 -8 -8 -8 -8 -8 -8 -8 -8 -8 -8 -8 -8 -8 -8 -8 -8 -9 -9 -9 -9 -9 -10 -10 -10 -9 -10 -10 -10 -10
-12 -11 -11 -11 -10 -10 -9 -9 -9 -9 -9 -9 -9 -8 -8 -8 -8 -8 -8 -8 -8 -8 -8 -8 -8 -8 -8 -8 -8 -8 -9 -9 -9 -9 -9 -9 -9 -10 -10 -10 -10 -10 -10 -10 -10
-12 -12 -11 -11 -11 -10 -10 -10 -10 -9 -9 -9 -9 -8 -9 -8 -8 -8 -8 -8 -8 -8 -8 -8 -8 -8 -8 -8 -8 -8 -9 -9 -9 -9 -9 -9 -9 -10 -10 -10 -10 -10 -10 -10 -10
-13 -12 -12 -12 -11 -11 -11 -10 -10 -10 -10 -9 -9 -9 -9 -8 -8 -8 -8 -8 -8 -8 -8 -8 -8 -8 -8 -8 -8 -9 -9 -9 -9 -9 -9 -10 -10 -10 -10 -10 -10 -10 -10 -10 -10
-13 -13 -12 -12 -12 -11 -11 -11 -10 -10 -10 -10 -10 -9 -9 -9 -9 -8 -9 -9 -8 -8 -8 -8 -8 -8 -8 -8 -8 -9 -9 -9 -9 -9 -9 -10 -10 -10 -10 -10 -10 -10 -10 -11 -10
-14 -13 -13 -13 -12 -12 -11 -11 -11 -11 -11 -10 -10 -10 -10 -9 -9 -9 -9 -9 -9 -8 -9 -8 -8 -8 -8 -8 -8 -8 -9 -9 -10 -10 -10 -10 -10 -11 -11 -10 -10 -10 -10 -10 -11
-14 -14 -13 -13 -13 -12 -12 -11 -11 -11 -11 -11 -11 -10 -10 -10 -10 -9 -9 -9 -9 -9 -9 -9 -8 -8 -9 -8 -9 -9 -9 -9 -9 -10 -10 -10 -10 -10 -11 -11 -11 -11 -11 -11 -11
-14 -14 -14 -13 -13 -12 -12 -12 -12 -12 -11 -11 -11 -11 -11 -10 -10 -10 -10 -9 -9 -9 -9 -9 -9 -9 -9 -9 -9 -9 -8 -9 -10 -10 -10 -10 -11 -11 -11 -11 -11 -11 -11 -11 -11
-14 -14 -15 -14 -14 -13 -13 -12 -12 -12 -11 -12 -11 -11 -11 -11 -11 -10 -10 -10 -10 -10 -9 -9 -9 -9 -9 -9 -9 -9 -9 -10 -10 -10 -10 -11 -11 -11 -11 -11 -11 -11 -11 -11 -11
-15 -14 -14 -14 -14 -13 -13 -13 -13 -12 -12 -12 -11 -11 -11 -11 -11 -11 -11 -10 -10 -10 -10 -10 -9 -10 -10 -9 -9 -9 -9 -9 -10 -10 -10 -11 -11 -11 -11 -11 -11 -11 -11 -11 -11
-16 -15 -14 -14 -14 -14 -14 -13 -14 -13 -13 -12 -12 -12 -12 -11 -11 -11 -11 -11 -10 -10 -10 -10 -10 -10 -10 -10 -10 -10 -10 -10 -10 -10 -10 -11 -11 -11 -11 -11 -11 -11 -11 -11 -11
-17 -16 -16 -15 -15 -14 -14 -14 -14 -14 -13 -13 -12 -12 -12 -12 -11 -11 -11 -11 -11 -11 -11 -11 -10 -10 -10 -10 -10 -10 -10 -10 -10 -11 -11 -11 -11 -11 -12 -12 -12 -12 -11 -11 -11
-17 -17 -17 -16 -16 -16 -16 -17 -16 -15 -14 -13 -13 -12 -12 -12 -12 -12 -12 -12 -11 -11 -11 -11 -11 -11 -11 -11 -11 -10 -11 -11 -11 -11 -11 -11 -11 -12 -12 -12 -12 -12 -12 -12 -12
-17 -17 -18 -17 -16 -16 -17 -17 -17 -17 -16 -15 -13 -12 -12 -13 -12 -12 -13 -13 -12 -12 -12 -12 -12 -11 -11 -11 -11 -11 -11 -11 -11 -11 -11 -12 -12 -12 -12 -12 -12 -12 -12 -12 -12
-18 -18 -18 -17 -18 -17 -17 -18 -17 -17 -16 -14 -13 -13 -14 -14 -13 -13 -13 -13 -13 -13 -13 -12 -12 -12 -12 -12 -12 -12 -12 -12 -12 -12 -11 -12 -12 -12 -13 -13 -12 -13 -13 -12 -12
-18 -18 -19 -18 -17 -17 -18 -17 -16 -17 -15 -15 -14 -15 -15 -15 -15 -14 -14 -14 -14 -14 -13 -13 -13 -13 -12 -12 -13 -13 -13 -13 -12 -12 -12 -12 -12 -13 -13 -13 -13 -13 -13 -13 -13
-19 -19 -19 -19 -19 -18 -18 -18 -17 -17 -16 -15 -15 -15 -15 -16 -15 -15 -15 -15 -15 -15 -14 -14 -13 -13 -13 -13 -13 -13 -13 -13 -13 -12 -12 -12 -12 -13 -13 -13 -13 -14 -13 -13 -13
-20 -20 -20 -20 -20 -19 -18 -18 -17 -18 -17 -16 -15 -16 -16 -16 -16 -16 -16 -16 -16 -16 -15 -15 -14 -14 -14 -13 -13 -13 -13 -14 -13 -13 -12 -12 -12 -13 -13 -13 -13 -14 -14 -13 -13
-20 -20 -20 -21 -20 -20 -19 -18 -18 -18 -18 -16 -18 -17 -16 -16 -16 -16 -16 -16 -16 -15 -16 -15 -15 -14 -14 -14 -14 -13 -13 -13 -13 -13 -12 -12 -12 -14 -14 -13 -13 -14 -14 -14 -14
-21 -21 -21 -21 -21 -21 -20 -19 -18 -18 -18 -17 -18 -18 -17 -17 -17 -17 -16 -16 -16 -16 -16 -15 -15 -15 -14 -14 -14 -14 -13 -13 -13 -13 -12 -12 -12 -14 -14 -14 -14 -14 -14 -14 -14
-21 -21 -21 -21 -22 -21 -20 -19 -19 -19 -18 -18 -18 -18 -18 -18 -18 -17 -18 -17 -17 -17 -16 -16 -16 -15 -15 -15 -15 -15 -14 -14 -14 -13 -13 -12 -13 -15 -16 -16 -15 -15 -15 -15 -15
-21 -21 -22 -22 -21 -20 -20 -19 -20 -19 -19 -19 -19 -19 -19 -19 -19 -18 -18 -17 -17 -17 -17 -17 -16 -16 -16 -15 -15 -15 -15 -15 -15 -14 -13 -13 -13 -15 -16 -17 -16 -15 -15 -15 -15
-22 -22 -22 -22 -21 -20 -20 -20 -20 -20 -20 -20 -20 -20 -20 -19 -19 -19 -19 -19 -18 -18 -18 -18 -17 -17 -17 -16 -16 -16 -16 -16 -15 -14 -14 -13 -14 -14 -15 -16 -16 -15 -15 -15 -16
-23 -21 -21 -21 -21 -20 -20 -20 -20 -20 -20 -21 -21 -21 -21 -21 -20 -20 -20 -20 -19 -19 -19 -19 -18 -18 -17 -17 -17 -16 -16 -16 -16 -15 -15 -15 -14 -15 -15 -16 -15 -16 -16 -15 -16
-23 -21 -21 -21 -21 -21 -21 -20 -20 -20 -20 -20 -21 -21 -21 -21 -21 -21 -21 -20 -20 -20 -19 -19 -19 -19 -19 -18 -18 -17 -17 -16 -16 -16 -16 -16 -15 -16 -16 -15 -16 -16 -16 -16 -16
-23 -22 -22 -21 -21 -22 -21 -21 -20 -21 -20 -21 -21 -22 -22 -22 -22 -21 -21 -21 -21 -21 -20 -20 -20 -20 -20 -19 -19 -18 -17 -18 -18 -18 -18 -16 -16 -15 -16 -16 -15 -15 -15 -15 -15
Height
5757 5763 5766 5770 5774 5778 5782 5784 5786 5790 5792 5796 5799 5802 5804 5807 5809 5811 5813 5815 5816 5818 5818 5819 5819 5820 5820 5820 5821 5820 5821 5819 5820 5819 5819 5818 5818 5816 5815 5812 5809 5807 5806 5806 5804
5749 5754 5760 5762 5766 5771 5774 5778 5781 5784 5787 5790 5793 5797 5800 5802 5805 5806 5810 5811 5813 5814 5816 5817 5817 5817 5818 5818 5818 5818 5818 5816 5816 5816 5815 5815 5814 5813 5812 5808 5807 5804 5802 5801 5800
5742 5744 5751 5754 5758 5762 5766 5770 5774 5777 5780 5784 5788 5790 5794 5797 5800 5802 5805 5807 5809 5811 5812 5814 5814 5815 5815 5815 5815 5816 5815 5813 5813 5812 5811 5811 5810 5809 5808 5805 5803 5801 5798 5797 5796
5734 5736 5743 5745 5751 5755 5759 5762 5767 5771 5773 5777 5781 5784 5787 5792 5796 5797 5799 5803 5805 5807 5808 5809 5811 5812 5812 5812 5812 5812 5811 5810 5809 5809 5808 5807 5806 5805 5803 5803 5801 5797 5794 5792 5792
5725 5729 5733 5737 5742 5747 5751 5755 5759 5763 5767 5769 5773 5778 5781 5784 5789 5791 5793 5797 5800 5802 5803 5805 5807 5808 5809 5809 5809 5808 5808 5807 5806 5805 5804 5803 5801 5802 5798 5798 5796 5794 5791 5788 5787
5715 5720 5724 5728 5733 5738 5742 5746 5750 5755 5759 5763 5766 5770 5774 5778 5781 5785 5788 5790 5794 5797 5798 5800 5801 5803 5804 5805 5805 5804 5804 5803 5802 5801 5801 5800 5797 5796 5795 5794 5792 5789 5786 5784 5782
5706 5709 5714 5718 5723 5729 5732 5737 5741 5747 5751 5754 5760 5762 5767 5770 5773 5778 5781 5784 5787 5790 5793 5795 5796 5798 5799 5800 5801 5800 5800 5798 5797 5795 5796 5795 5795 5789 5791 5791 5789 5786 5782 5781 5779
5694 5697 5704 5708 5712 5719 5724 5727 5732 5737 5742 5746 5751 5756 5759 5762 5765 5770 5773 5777 5780 5783 5786 5788 5790 5791 5793 5794 5795 5795 5796 5794 5792 5791 5790 5789 5794 5785 5784 5787 5784 5781 5779 5777 5775
5683 5686 5692 5698 5702 5707 5713 5718 5722 5727 5733 5738 5741 5747 5751 5755 5758 5762 5766 5769 5772 5775 5778 5781 5783 5785 5787 5788 5787 5789 5788 5790 5788 5785 5784 5784 5788 5782 5778 5782 5780 5777 5774 5772 5770
5669 5675 5680 5686 5691 5697 5702 5707 5711 5718 5723 5727 5733 5739 5744 5747 5749 5754 5759 5761 5764 5768 5771 5774 5776 5778 5782 5780 5781 5783 5783 5782 5781 5780 5778 5779 5784 5779 5772 5775 5775 5774 5770 5767 5765
5657 5663 5665 5673 5679 5684 5691 5696 5703 5707 5713 5717 5723 5727 5733 5738 5742 5744 5750 5753 5755 5759 5762 5765 5768 5773 5771 5773 5774 5775 5776 5776 5775 5772 5772 5773 5778 5776 5771 5768 5769 5768 5766 5763 5761
5643 5649 5654 5660 5666 5672 5678 5684 5689 5695 5700 5706 5710 5717 5721 5728 5732 5736 5741 5746 5748 5750 5753 5757 5761 5761 5764 5766 5767 5767 5768 5769 5768 5765 5764 5766 5773 5769 5767 5766 5765 5763 5761 5759 5757
5630 5638 5642 5647 5650 5658 5666 5671 5675 5680 5684 5693 5698 5704 5711 5716 5722 5727 5731 5735 5739 5742 5745 5748 5752 5754 5756 5757 5759 5760 5760 5761 5760 5758 5757 5758 5765 5766 5763 5761 5760 5759 5756 5755 5753
5616 5625 5630 5636 5639 5646 5654 5659 5663 5668 5669 5678 5685 5693 5698 5704 5709 5715 5719 5725 5729 5733 5736 5739 5742 5745 5748 5749 5750 5752 5752 5752 5752 5751 5751 5753 5754 5762 5758 5757 5756 5754 5752 5751 5750
5604 5611 5618 5623 5632 5637 5646 5649 5653 5656 5655 5668 5676 5684 5688 5691 5701 5704 5709 5712 5717 5722 5727 5730 5732 5735 5738 5741 5742 5744 5744 5744 5744 5743 5742 5747 5745 5757 5755 5753 5751 5750 5748 5747 5746
5589 5596 5603 5610 5619 5625 5631 5637 5637 5642 5642 5653 5662 5670 5676 5681 5687 5691 5696 5701 5706 5710 5715 5718 5721 5725 5728 5730 5731 5733 5735 5736 5735 5735 5734 5742 5741 5749 5748 5749 5747 5745 5744 5744 5743
5574 5582 5590 5598 5607 5612 5619 5624 5628 5623 5637 5643 5651 5658 5664 5670 5674 5678 5684 5689 5693 5698 5703 5708 5710 5714 5716 5719 5722 5724 5726 5726 5727 5728 5729 5732 5734 5741 5743 5744 5741 5740 5740 5740 5739
5560 5568 5575 5583 5592 5601 5611 5611 5612 5617 5624 5634 5640 5646 5652 5658 5664 5668 5672 5677 5681 5686 5692 5695 5699 5702 5706 5709 5713 5714 5717 5719 5718 5721 5722 5724 5725 5733 5737 5737 5735 5734 5735 5735 5735
5547 5553 5561 5570 5577 5585 5593 5593 5599 5607 5613 5622 5626 5631 5640 5647 5653 5658 5663 5668 5673 5678 5682 5684 5687 5691 5696 5699 5702 5705 5708 5712 5712 5712 5714 5716 5719 5725 5730 5729 5728 5728 5729 5729 5729
5531 5539 5548 5553 5561 5566 5570 5575 5586 5595 5603 5609 5614 5618 5626 5635 5641 5648 5652 5657 5663 5669 5672 5674 5678 5682 5686 5688 5692 5696 5700 5701 5703 5705 5706 5707 5710 5715 5720 5722 5723 5723 5723 5723 5724
5516 5523 5533 5538 5543 5545 5553 5570 5579 5587 5594 5599 5602 5608 5615 5623 5629 5635 5640 5646 5652 5658 5661 5665 5669 5673 5676 5679 5682 5686 5688 5691 5695 5697 5698 5701 5704 5704 5707 5715 5716 5717 5717 5717 5718
5499 5508 5518 5524 5526 5534 5550 5564 5570 5573 5580 5586 5592 5598 5604 5610 5616 5623 5628 5633 5641 5646 5651 5654 5656 5659 5665 5668 5671 5675 5679 5681 5684 5690 5692 5693 5696 5697 5699 5703 5707 5708 5709 5709 5711
5484 5494 5501 5507 5512 5527 5540 5548 5553 5559 5570 5575 5580 5586 5593 5598 5603 5608 5615 5621 5627 5633 5637 5642 5645 5649 5653 5658 5661 5666 5669 5671 5674 5678 5681 5683 5689 5693 5693 5693 5697 5699 5700 5702 5703
5465 5474 5484 5492 5507 5518 5528 5535 5542 5548 5556 5562 5567 5574 5579 5584 5589 5594 5600 5607 5612 5618 5624 5629 5633 5638 5642 5645 5651 5655 5659 5661 5663 5665 5672 5676 5681 5686 5683 5680 5683 5689 5691 5693 5695
5446 5459 5472 5483 5495 5505 5514 5522 5529 5535 5542 5550 5556 5563 5568 5574 5578 5583 5589 5594 5599 5605 5610 5617 5622 5626 5630 5633 5638 5642 5646 5650 5653 5656 5658 5666 5670 5675 5672 5668 5673 5678 5680 5682 5684
5433 5449 5462 5475 5485 5494 5501 5511 5520 5527 5535 5541 5547 5553 5559 5565 5569 5574 5576 5582 5587 5594 5598 5604 5610 5613 5617 5622 5626 5630 5636 5639 5643 5646 5648 5651 5657 5658 5656 5657 5663 5664 5666 5672 5674
5419 5435 5450 5461 5472 5481 5492 5500 5509 5517 5523 5532 5538 5542 5547 5553 5557 5563 5568 5572 5577 5582 5588 5593 5598 5602 5606 5611 5614 5622 5629 5629 5630 5632 5634 5638 5645 5643 5647 5647 5652 5656 5660 5663 5667
Wind_Speed
37 39 39 38 42 43 41 39 38 36 35 33 32 29 28 27 24 22 19 16 13 11 8 7 6 7 7 10 13 15 15 17 18 18 18 18 19 19 19 21 24 21 21 22 23
38 38 41 40 38 43 43 42 41 39 38 36 35 33 31 30 28 24 21 18 15 13 10 9 8 7 8 10 13 15 17 20 19 18 19 20 20 21 21 24 26 24 22 22 22
41 39 41 42 41 40 42 43 44 43 42 40 38 36 34 33 30 27 24 22 18 16 14 13 11 9 10 11 14 16 19 21 21 20 20 22 22 22 21 26 27 27 25 22 22
44 42 43 41 42 43 41 40 41 43 42 42 42 39 37 36 33 30 27 25 22 20 18 17 16 13 12 13 16 17 20 22 24 23 21 22 23 22 23 23 25 28 26 23 21
46 46 45 43 44 44 44 43 41 41 41 40 41 41 39 38 36 33 30 28 26 23 20 19 18 17 17 16 18 19 23 24 24 26 25 23 25 22 25 24 25 26 25 25 23
49 49 48 46 46 46 45 44 43 43 43 41 41 41 39 39 38 37 34 32 29 26 23 21 21 20 19 20 20 22 24 26 26 28 25 25 25 25 26 24 26 26 25 24 23
55 51 52 50 49 49 47 46 44 44 43 43 44 42 41 40 40 39 37 35 32 29 26 24 24 23 22 23 23 25 25 28 29 30 27 26 23 28 26 25 26 28 27 25 23
65 57 54 53 51 52 50 48 46 45 44 43 43 43 42 42 40 41 40 37 35 33 31 29 28 28 26 25 27 27 28 31 32 33 30 27 19 29 30 25 26 28 28 23 22
51 65 59 56 55 54 53 52 50 48 47 46 44 43 42 43 40 41 41 40 39 37 36 34 33 31 30 29 31 31 32 32 33 34 34 31 18 28 32 26 26 29 28 24 22
65 61 65 63 60 58 57 56 53 53 52 50 48 46 45 43 42 42 42 40 40 41 40 38 38 35 32 36 36 35 35 35 34 37 36 33 20 26 34 29 27 28 27 24 22
54 77 64 68 65 61 59 58 57 56 56 54 53 51 49 48 46 45 45 44 43 43 42 42 41 35 38 39 39 38 39 39 38 40 39 34 24 24 30 32 28 29 26 23 22
52 49 66 64 66 67 65 61 58 58 59 59 57 55 53 53 51 50 48 48 47 46 45 45 41 41 40 40 42 42 42 42 43 41 41 35 25 25 26 29 29 27 25 21 21
57 53 50 53 54 59 60 63 68 62 61 63 62 59 57 56 56 54 52 52 50 48 46 46 45 44 44 44 44 46 46 46 46 43 41 37 29 23 26 28 27 25 23 21 21
59 61 57 53 56 54 50 50 52 56 65 65 64 62 61 60 59 58 56 54 54 52 51 51 50 48 47 46 48 49 48 48 46 43 40 37 36 20 24 26 26 24 22 20 19
65 62 60 61 56 56 50 48 51 52 56 57 65 66 61 61 60 57 57 56 56 56 54 53 52 51 51 49 49 49 47 46 43 43 42 36 39 18 20 25 25 23 19 18 17
62 62 61 63 62 61 54 54 56 54 59 54 56 58 61 54 55 57 56 55 56 56 55 54 54 53 50 47 47 45 44 44 43 42 45 36 37 23 21 21 23 21 20 18 16
50 59 59 62 63 59 53 56 54 53 58 57 53 51 48 51 50 52 55 48 50 51 51 50 49 48 46 46 46 44 43 43 43 42 44 39 37 27 21 20 23 22 20 20 18
51 50 58 59 57 51 42 51 53 55 56 55 56 56 50 47 45 42 46 48 45 45 47 45 44 45 47 47 45 44 42 41 43 42 42 42 40 30 22 22 23 24 22 22 20
55 51 50 55 55 58 48 52 57 46 55 54 54 54 53 48 43 41 43 40 36 37 42 44 46 47 45 44 44 44 44 40 41 44 44 42 38 30 22 25 25 25 24 24 22
57 55 51 55 57 61 71 59 61 51 53 57 53 52 53 53 51 49 47 44 42 42 42 40 42 44 42 45 42 43 44 45 43 42 42 42 39 35 27 25 24 24 23 23 23
59 59 56 55 59 63 68 71 66 70 63 69 62 61 62 56 54 51 49 47 46 42 41 43 44 43 41 43 44 43 38 43 45 45 44 42 42 40 34 25 26 25 26 26 24
61 61 59 58 61 59 58 59 65 68 71 66 66 64 66 61 58 57 53 51 49 47 45 44 45 45 46 47 45 45 44 41 39 43 44 44 44 37 32 17 25 30 33 31 27
61 61 61 63 62 55 50 50 54 59 63 69 67 65 61 57 56 54 54 55 54 52 50 49 51 50 49 46 46 45 45 46 46 43 39 41 43 39 35 26 26 30 34 33 33
66 64 64 64 59 56 51 48 47 50 55 55 54 52 51 52 52 52 53 53 54 53 52 50 50 51 51 51 49 46 44 43 45 48 47 48 43 38 40 40 40 37 37 35 34
70 67 62 62 59 57 55 54 49 46 47 48 48 44 44 45 45 44 45 47 48 51 51 51 49 51 50 51 51 50 49 48 47 45 45 42 40 34 35 35 37 37 37 39 39
74 68 63 58 57 57 56 55 51 47 43 40 40 40 42 39 36 37 39 40 42 43 45 48 42 47 51 52 52 50 48 49 47 45 46 45 45 40 40 42 32 33 43 42 41
76 71 65 62 56 56 54 53 51 48 45 38 36 39 40 37 38 38 35 34 34 36 40 43 48 50 50 47 49 51 46 43 43 43 43 45 43 47 43 46 43 36 31 35 44
Wind_Direction
233 233 234 233 231 231 229 226 225 226 225 225 228 229 228 230 226 224 223 223 221 233 239 245 262 284 292 303 307 308 306 297 301 298 297 297 297 306 314 316 316 314 300 296 298
231 232 234 234 234 233 232 231 229 228 228 227 227 229 229 230 230 223 225 222 221 228 237 246 256 268 290 302 310 315 307 302 302 300 299 296 297 301 310 312 323 315 305 296 298
232 230 232 233 233 233 232 233 233 232 231 231 230 228 230 231 227 225 223 226 223 229 234 245 255 272 283 300 309 312 306 305 303 301 298 298 298 296 304 308 320 317 309 298 294
234 231 232 231 233 234 233 232 234 234 231 233 233 231 228 230 230 226 223 226 226 231 235 243 254 268 283 297 300 309 305 304 304 304 301 298 297 298 298 308 312 316 309 301 294
236 234 232 231 231 233 233 233 233 235 234 231 233 232 228 226 228 225 222 223 228 230 235 243 253 260 275 289 296 306 305 305 303 301 303 301 297 299 291 306 314 317 308 300 297
236 235 234 232 232 231 232 232 232 234 235 234 232 231 231 229 226 226 225 223 224 231 235 244 250 259 268 280 293 300 305 305 299 295 300 301 300 296 294 302 311 316 307 298 298
237 239 236 234 233 233 231 231 232 233 233 233 236 232 231 229 228 227 227 227 225 230 236 246 250 257 263 273 284 293 299 301 296 290 296 300 303 294 295 303 311 312 306 301 300
233 233 240 238 234 234 234 231 231 232 233 233 233 234 234 233 229 230 229 229 230 230 238 245 249 254 260 268 277 288 292 293 296 294 292 295 303 294 294 302 309 311 309 303 298
232 232 237 241 238 236 236 234 232 233 233 232 231 233 232 233 231 232 231 229 230 234 240 248 252 256 258 266 271 279 285 297 297 293 290 291 302 292 291 300 304 311 311 301 298
232 233 236 244 244 239 238 236 234 235 234 234 233 233 233 232 232 234 234 233 234 238 243 248 252 255 259 263 269 279 286 289 293 290 286 287 298 295 293 300 299 308 308 299 297
232 232 233 235 239 242 240 239 238 237 237 236 235 234 235 235 236 235 237 238 238 241 245 248 251 256 255 262 269 277 283 289 290 287 285 282 290 289 292 297 301 308 310 299 298
237 238 230 232 233 237 241 242 239 239 239 239 237 237 236 238 239 239 239 242 242 242 245 249 252 253 258 264 269 273 280 286 285 283 282 279 282 288 289 291 295 304 308 300 298
244 240 240 235 232 231 234 239 239 239 239 239 240 239 239 239 241 242 242 243 245 246 247 249 251 253 258 262 268 274 278 280 281 277 277 277 276 284 287 288 294 304 307 302 299
237 243 239 238 238 233 236 244 244 241 241 239 240 240 242 242 244 243 245 246 248 249 250 251 252 255 258 263 268 272 275 277 275 274 272 273 279 285 288 285 289 298 302 302 302
237 235 237 241 239 244 238 242 244 250 246 242 239 244 243 244 246 247 248 249 249 251 252 254 256 258 262 265 269 270 269 270 269 269 269 271 276 280 277 277 283 292 298 300 298
236 234 232 233 239 236 238 240 244 244 246 244 242 239 243 245 245 247 248 248 250 251 252 254 256 258 259 262 262 263 263 264 263 264 268 271 273 279 278 276 279 288 291 291 296
234 234 231 232 232 237 246 248 228 235 242 245 246 245 243 245 246 248 246 246 248 247 250 252 253 254 255 256 256 258 259 259 261 262 266 269 269 279 277 277 277 284 285 284 288
230 230 231 232 226 226 225 238 227 240 241 244 248 246 247 244 243 248 251 246 248 252 251 248 249 251 252 254 254 252 252 255 260 262 264 268 272 276 270 272 270 277 280 280 281
230 228 227 227 224 219 215 217 224 230 243 249 241 240 242 245 246 246 245 248 250 254 253 253 250 250 250 252 251 250 251 253 256 260 264 268 272 274 263 261 263 273 275 276 279
228 227 226 224 224 220 214 215 223 225 232 239 237 242 251 250 249 247 248 247 247 248 249 252 254 252 251 251 250 251 254 249 251 256 258 265 272 273 261 259 261 267 272 274 277
226 226 224 224 224 223 222 218 224 230 229 229 240 249 252 251 251 250 249 248 248 247 248 250 252 253 252 251 253 251 251 251 251 250 254 262 267 274 273 257 256 260 263 267 271
227 225 224 224 225 228 228 227 229 228 228 232 239 244 251 251 249 248 248 249 248 247 248 249 252 253 253 251 251 253 253 253 254 253 253 256 259 266 272 259 247 248 258 260 266
227 226 224 224 226 228 230 230 229 230 231 236 241 245 245 246 248 246 246 247 246 247 246 246 248 252 253 253 253 252 254 255 254 253 251 253 256 255 259 243 229 249 249 258 265
224 224 224 225 225 227 228 229 230 232 233 234 237 240 242 242 243 244 244 244 245 246 246 244 245 247 249 251 251 253 253 253 255 256 257 258 262 263 268 251 247 256 243 248 257
222 225 226 228 225 226 227 228 227 231 233 232 235 238 240 242 243 246 246 245 243 243 243 244 244 245 246 250 251 251 251 253 255 258 257 260 257 261 260 256 258 247 235 241 247
223 224 227 228 226 227 228 229 230 231 232 234 234 235 239 242 243 244 245 244 243 242 242 241 236 243 244 245 247 249 252 254 255 256 258 257 251 256 257 258 260 247 244 239 242
221 221 224 225 225 227 227 229 230 232 233 232 230 230 231 235 238 239 238 240 239 238 239 240 240 244 246 248 250 250 253 256 255 255 254 254 252 250 254 259 258 260 258 251 247